Regional Weather Roundup
Issued by NWS

Home | Current Version | Previous Version | Text Only | Print | Product List | Glossary Off
Versions: 1 2 3 4 5 6 7 8 9 10 11 12 13 14 15 16 17 18 19 20 21 22 23 24 25 26 27 28 29 30 31 32 33 34 35 36 37 38 39 40 41 42 43 44 45 46 47 48 49 50

000
ASUS43 KMKX 020721
RWRWI

WISCONSIN REGIONAL WEATHER ROUNDUP
NATIONAL WEATHER SERVICE MILWAUKEE/SULLIVAN WI
200 AM CDT MON MAY 02 2016

NOTE: "FAIR" INDICATES FEW OR NO CLOUDS BELOW 12,000 FEET WITH NO
SIGNIFICANT WEATHER AND/OR OBSTRUCTIONS TO VISIBILITY.

WIZ001-002-006>008-014>016-023>028-020800-
NORTHWEST WISCONSIN

CITY           SKY/WX    TMP DP  RH WIND       PRES   REMARKS
SUPERIOR ARPT  CLEAR     29  28  99 S3        30.16S
ASHLAND        CLEAR     28  28 100 CALM      30.15S
HAYWARD        CLEAR     33  29  85 N3        30.13S
SIREN          CLEAR     34  32  92 CALM      30.13S
CUMBERLAND     CLEAR     41  32  70 CALM      30.12S
RICE LAKE      CLEAR     40  36  84 CALM      30.13S
CHETEK         CLEAR     42  35  74 CALM      30.12S
LADYSMITH      CLEAR     36  33  88 CALM      30.13S
EAU CLAIRE     CLEAR     41  35  79 N3        30.11R
MENOMONIE      CLEAR     42  32  67 CALM      30.11S
NEW RICHMOND   CLEAR     43  32  66 CALM      30.12S
OSCEOLA        CLEAR     38  33  80 CALM      30.15S
$$

WIZ003>005-009-010-017-018-020800-
NORTH CENTRAL WISCONSIN

CITY           SKY/WX    TMP DP  RH WIND       PRES   REMARKS
MANITOWISH WTR CLEAR     33  33 100 CALM      30.12S
ARBOR VITAE    CLEAR     38  33  84 CALM      30.12S
WOODRUFF       CLEAR     38  33  84 CALM      30.12S
RHINELANDER    CLEAR     38  30  73 CALM      30.12S
EAGLE RIVER    CLEAR     32  31  97 CALM      30.11S
LAND O LAKES   CLEAR     30  29  97 CALM      30.12F
PHILLIPS       CLEAR     34  32  92 CALM      30.11S
TOMAHAWK       CLEAR     32  30  92 CALM      30.12S
MEDFORD        CLEAR     37  34  87 CALM      30.11S
MERRILL        CLEAR     32  31  96 CALM      30.12S
$$

WIZ029-030-035-036-043>047-020800-
CENTRAL WISCONSIN

CITY           SKY/WX    TMP DP  RH WIND       PRES   REMARKS
WAUSAU         CLEAR     42  35  76 CALM      30.10S
MOSINEE        CLEAR     41  36  81 NW3       30.12S
MARSHFIELD     CLEAR     43  33  68 NE3       30.10F
STEVENS POINT  PTCLDY    33  31  94 CALM      30.11S
WAUPACA        CLEAR     41  36  83 N3        30.11R
WAUTOMA        CLEAR     36  35  96 CALM      30.11R
WISC RAPIDS    MOCLDY    36  32  85 N6        30.12R WCI  31
CAMP DOUGLAS     N/A     32  32 100 SW3       30.11R
$$

WIZ011>013-019>022-031-037>040-048>050-020800-
NORTHEAST WISCONSIN

CITY           SKY/WX    TMP DP  RH WIND       PRES   REMARKS
ANTIGO         CLEAR     34  32  91 CALM      30.11S
SHAWANO        CLEAR     42  35  76 CALM      30.11S
OCONTO         CLEAR     41  34  76 N5        30.10S
STURGEON BAY   CLEAR     39  34  81 N7        30.11S WCI  34
GREEN BAY      CLEAR     43  37  79 N5        30.10R
MANITOWOC      MOCLDY    40  35  83 CALM      30.09S
APPLETON       CLEAR     41  34  75 NE6       30.08R
CLINTONVILLE   CLEAR     39  34  81 CALM      30.11R
OSHKOSH        CLEAR     43  38  82 N6        30.09R
$$

WIZ032>034-041-042-053>061-020800-
SOUTHWEST WISCONSIN

CITY           SKY/WX    TMP DP  RH WIND       PRES   REMARKS
LA CROSSE      CLOUDY    44  39  82 E3        30.11S
SPARTA         CLEAR     32  31  96 CALM      30.13R
VIROQUA        PTCLDY    40  37  89 NE5       30.11R
BOSCOBEL       FOG       39  38  96 CALM      30.11R VSB 1/4
PRAIRIE DU CHI FOG       42  41  95 CALM      30.11S VSB 1/4
PLATTEVILLE    PTCLDY    44  42  93 N8        30.07F
$$

WIZ056-057-062-063-064-067-068-020800-
SOUTH CENTRAL WISCONSIN

CITY           SKY/WX    TMP DP  RH WIND       PRES   REMARKS
REEDSBURG      CLEAR     38  37  97 CALM      30.10R
BARABOO/DELLS  CLEAR     38  36  94 CALM      30.09S
LONE ROCK      CLEAR     38  37  97 W3        30.11R
MINERAL POINT  CLOUDY    45  43  93 N6        30.08S
MADISON        CLOUDY    47  41  80 N5        30.08R
MIDDLETON      CLOUDY    48  43  82 CALM      30.09S
WATERTOWN      CLOUDY    46  42  84 N3        30.07S
MONROE         DRIZZLE   45  45 100 N14       30.06F
JANESVILLE     CLOUDY    46  46 100 NE5       30.06S
$$

WIZ051-052-058>065-066-070>072-020800-
SOUTHEAST WISCONSIN

CITY           SKY/WX    TMP DP  RH WIND       PRES   REMARKS
MILWAUKEE      CLOUDY    44  41  89 N8        30.05F
WAUKESHA       CLOUDY    43  41  93 N3        30.07S
MILWAUKEE/TIMM CLOUDY    45  39  81 N5        30.07S
RACINE         CLOUDY    44  40  85 N6        30.07S
BURLINGTON     CLOUDY    44  43  97 CALM      30.06R
KENOSHA        CLOUDY    45  42  89 N7        30.06R
FOND DU LAC    CLOUDY    43  38  82 NW5       30.08S
SHEBOYGAN      CLOUDY    44  36  73 N5        30.08R
WEST BEND      CLOUDY    45  36  70 NE6       30.07S
JUNEAU         CLOUDY    46  40  81 N5        30.09S
$$

LSZ147-162-020800-
LAKE SUPERIOR

STATION/POSITION TIME  TEMP    WIND        PRES    WAVE
                       AIR SEA DIR/SP/G            HT/PER
                 (UTC) (F)     (DEG/KT/KT) (MB)    (FT/S)
W MID LAKE BUOY  0650   38 36   10/  4/  4 1021.5F   1/ 5
DEVILS ISLAND    0700   39      10/  5/  5 1021.6F
SAXON HARBOR     0600   30     190/  4/  5 1020.3S
$$

LMZ867-665-643>646-020800-
LAKE MICHIGAN

STATION/POSITION TIME  TEMP    WIND        PRES    WAVE
                       AIR SEA DIR/SP/G            HT/PER
                 (UTC) (F)     (DEG/KT/KT) (MB)    (FT/S)
CHAMBERS ISLAND  0600   43     340/  7/  8 1019.3S
N MID LAKE BUOY  0650   40 38  320/  8/  8 1018.6F   1
NORTHPORT PIER   0600   42     300/  7/  9 1019.0S
KEWAUNEE LAKESHO 0700   44     340/  4/  6 1018.1R
SHEBOYGAN LAKESH 0700   43      10/ 10/ 11 1019.2R
PORT WASHINGTON  0640   46      10/  6/ 13 1019.0S
S MID LAKE BUOY  0650   42 40   40/  8/ 10 1017.0F   2/ 4
KENOSHA   LAKESH 0700   45      10/ 10/ 13 1017.9R
$$

TC  - TEMPERATURE IN CELSIUS
VSB - VISIBILITY IN STATUTE MILES
WCI - WIND CHILL INDEX
HX  - HEAT INDEX




USA.gov is the U.S. government's official web portal to all federal, state and local government web resources and services.